Home   Weather   Moss   Past weeks

Flag for Norway Past Weather in Moss, Norway — Yesterday and Last 2 Weeks

37 °F

Mostly cloudy.

Feels Like: 30 °F
Forecast: 39 / 44 °F
Wind: 12 mph from Northeast

Location: Rygge

Current Time: Oct 22, 2016 at 9:45:31 PM

Latest Report: Oct 22, 2016 at 8:50 PM

Visibility: N/A

Pressure: 30.30 "Hg

Humidity: 87%

Dew Point: 34 °F

Location of MossLocation

Past Weather in Moss — Graph


Moss Temperature Yesterday

Maximum temperature yesterday: 43 °F (at 12:50 PM)
Minimum temperature yesterday: 41 °F (at 12:20 AM)
Average temperature yesterday: 41 °F

High & Low Weather Summary for the Past Weeks

High50 °F (Oct 7, 8:20 PM)100% (Oct 16, 6:20 PM)30.60 "Hg (Oct 16, 6:20 PM)
Low34 °F (Oct 14, 6:50 AM)54% (Oct 10, 4:50 PM)30.09 "Hg (Oct 18, 5:20 PM)
Average42 °F82%30.41 "Hg
* Reported Oct 7 8:20 PM — Oct 22 8:20 PM, Moss, Weather by CustomWeather, © 2016

Note: Actual official high and low records may vary slightly from our data, if they occured in-between our weather recording intervals... More about our weather records


Moss Weather History for the Previous 24 Hours

Scroll right to see more
Time TempWeatherWind HumidityBarometerVisibility
8:20 PM
Sat, Oct 22
37 °FMostly cloudy.10 mph87%30.30 "HgN/A
7:50 PM36 °FOvercast.13 mph93%30.30 "HgN/A
7:20 PM36 °FMostly cloudy.13 mph93%30.30 "HgN/A
6:50 PM36 °FDrizzle. Mostly cloudy.13 mph93%30.33 "HgN/A
6:20 PM36 °FDrizzle. Mostly cloudy.13 mph93%30.33 "HgN/A
5:50 PM36 °FDrizzle. Mostly cloudy.14 mph93%30.30 "HgN/A
5:20 PM37 °FDrizzle. Mostly cloudy.13 mph87%30.33 "HgN/A
4:50 PM37 °FLight rain. Mostly cloudy.14 mph87%30.33 "HgN/A
4:20 PM37 °FDrizzle. More clouds than sun.12 mph87%30.33 "HgN/A
3:50 PM37 °FDrizzle. Partly sunny.14 mph93%30.33 "HgN/A
3:20 PM37 °FLight rain. Partly sunny.12 mph93%30.33 "HgN/A
2:50 PM37 °FDrizzle. Partly sunny.13 mph87%30.33 "HgN/A
2:20 PM37 °FRain. Overcast.13 mph87%30.33 "Hg5 mi
1:50 PM39 °FOvercast.13 mph75%30.33 "HgN/A
1:20 PM39 °FOvercast.12 mph75%30.33 "HgN/A
12:50 PM39 °FOvercast.13 mph75%30.33 "HgN/A
12:20 PM39 °FOvercast.12 mph75%30.33 "HgN/A
11:50 AM39 °FOvercast.13 mph70%30.33 "HgN/A
11:20 AM41 °FOvercast.14 mph70%30.33 "HgN/A
10:50 AM41 °FOvercast.14 mph70%30.33 "HgN/A
10:20 AM41 °FOvercast.13 mph70%30.33 "HgN/A
9:50 AM41 °FOvercast.13 mph70%30.33 "HgN/A
9:20 AM41 °FOvercast.13 mph70%30.33 "HgN/A
8:50 AM41 °FOvercast.14 mph70%30.33 "HgN/A
8:20 AM41 °FOvercast.14 mph70%30.33 "HgN/A
7:50 AM41 °FOvercast.13 mph76%30.33 "HgN/A
7:20 AM41 °FPassing clouds.13 mph76%30.30 "HgN/A
6:50 AM41 °FPassing clouds.14 mph76%30.30 "HgN/A
6:20 AM41 °FPassing clouds.12 mph76%30.30 "HgN/A
5:50 AM41 °FOvercast.12 mph76%30.30 "HgN/A
5:20 AM41 °FMostly cloudy.12 mph76%30.30 "HgN/A
4:50 AM41 °FOvercast.12 mph76%30.30 "HgN/A
4:20 AM41 °FOvercast.10 mph76%30.33 "HgN/A
3:50 AM41 °FOvercast.10 mph76%30.33 "HgN/A
3:20 AM41 °FOvercast.10 mph81%30.33 "HgN/A
2:50 AM41 °FOvercast.9 mph81%30.33 "HgN/A
1:50 AM41 °FOvercast.9 mph81%30.33 "HgN/A
1:20 AM41 °FPassing clouds.9 mph81%30.33 "HgN/A
12:50 AM41 °FPassing clouds.9 mph81%30.33 "HgN/A
12:20 AM41 °FPassing clouds.9 mph81%30.33 "HgN/A
11:50 PM
Fri, Oct 21
41 °FPassing clouds.9 mph81%30.33 "HgN/A
11:20 PM41 °FPassing clouds.9 mph87%30.33 "HgN/A
10:50 PM41 °FPassing clouds.10 mph87%30.33 "HgN/A
10:20 PM41 °FOvercast.9 mph87%30.36 "HgN/A
9:50 PM41 °FOvercast.12 mph87%30.33 "HgN/A
9:20 PM41 °FOvercast.9 mph87%30.33 "HgN/A
Weather by CustomWeather, © 2016

See weather overviewHow to use our weather pages